Weather History for Palacios, TX

Change the Weather History Date:

Saturday, November 15, 2014

  Actual Average Record
Temperature  
Mean Temperature 52 °F -  
Max Temperature 59 °F 72 °F 84 °F (1944)
Min Temperature 44 °F 52 °F 30 °F (1969)
Degree Days  
Heating Degree Days 14    
Growing Degree Days 2 (Base 50)    
Moisture  
Dew Point 50 °F    
Average Humidity 87    
Maximum Humidity 100    
Minimum Humidity 56    
Precipitation  
Precipitation 0.12 in - - ()
Sea Level Pressure  
Sea Level Pressure 30.09 in    
Wind  
Wind Speed 11 mph (NE)    
Max Wind Speed 18 mph    
Max Gust Speed 21 mph    
Visibility 6 miles    
Events Rain    
Averages and records for this station are not official NWS values.
T = Trace of Precipitation, MM = Missing Value Source: NWS Daily Summary

Daily Weather History Graph

Daily Weather History Graph

Search for Another Location

Airport:

Trip Planner

Search our weather history database for the weather conditions in past years. The results will help you decide how hot, cold, wet, or windy it might be!

Date:

Astronomy

Nov. 15, 2014 Rise Set
Actual Time 6:47 AM CST 5:31 PM CST
Civil Twilight 6:22 AM CST 5:56 PM CST
Nautical Twilight 5:54 AM CST 6:24 PM CST
Astronomical Twilight 5:26 AM CST 6:52 PM CST
Moon 12:32 AM CST (11/15) 1:25 PM CST (11/15)
Length of Visible Light 11h 33m
Length of Day
10h 43m
Last Quarter, 40% of the Moon is Illuminated
Nov 15
Last Quarter
Nov 22
New
Nov 29
First Quarter
Dec 6
Full
Dec 14
Last Quarter

Hourly Weather History & Observations

Time (CST) Temp. Windchill Dew Point Humidity Pressure Visibility Wind Dir Wind Speed Gust Speed Precip Events Conditions
12:53 AM 45.0 °F 40.6 °F 30.0 °F 56% 30.26 in 10.0 mi NNE 8.1 mph - N/A   Overcast
1:02 AM 45.0 °F 40.6 °F 30.0 °F 56% 30.26 in 10.0 mi NNE 8.1 mph - N/A   Overcast
1:11 AM 45.0 °F 40.1 °F 30.9 °F 58% 30.25 in 10.0 mi NNE 9.2 mph - N/A   Overcast
1:53 AM 45.0 °F 40.1 °F 32.0 °F 60% 30.24 in 10.0 mi NNE 9.2 mph - N/A   Overcast
2:51 AM 44.6 °F 39.2 °F 33.8 °F 66% 30.22 in 10.0 mi NE 10.4 mph - N/A   Overcast
2:53 AM 45.0 °F 40.1 °F 34.0 °F 65% 30.22 in 10.0 mi NNE 9.2 mph - N/A   Overcast
4:53 AM 45.0 °F 38.9 °F 35.1 °F 68% 30.20 in 10.0 mi NNE 12.7 mph - N/A   Overcast
5:03 AM 46.0 °F 40.2 °F 35.1 °F 66% 30.20 in 10.0 mi NNE 12.7 mph - N/A   Overcast
5:53 AM 46.0 °F 40.6 °F 35.1 °F 66% 30.20 in 10.0 mi NNE 11.5 mph - N/A   Overcast
6:53 AM 46.9 °F - 36.0 °F 66% 30.20 in 10.0 mi NNE 11.5 mph - N/A   Overcast
7:53 AM 48.0 °F - 37.9 °F 68% 30.21 in 10.0 mi NE 12.7 mph - N/A   Overcast
8:12 AM 48.9 °F - 39.0 °F 69% 30.21 in 10.0 mi NE 11.5 mph - N/A   Overcast
8:53 AM 51.1 °F - 41.0 °F 68% 30.21 in 10.0 mi NE 15.0 mph - N/A   Overcast
9:09 AM 51.1 °F - 42.1 °F 71% 30.21 in 10.0 mi NE 13.8 mph - N/A   Overcast
9:53 AM 52.0 °F - 46.9 °F 83% 30.20 in 6.0 mi ENE 18.4 mph - N/A   Haze
10:02 AM 54.0 °F - 48.0 °F 80% 30.20 in 6.0 mi NE 17.3 mph - N/A   Haze
10:25 AM 52.0 °F - 48.0 °F 86% 30.20 in 3.0 mi NE 16.1 mph - N/A   Overcast
10:48 AM 53.6 °F - 50.0 °F 88% 30.18 in 2.5 mi NE 13.8 mph - N/A   Overcast
10:53 AM 53.1 °F - 51.1 °F 93% 30.18 in 3.0 mi NE 12.7 mph - N/A   Overcast
11:53 AM 55.0 °F - 52.0 °F 89% 30.13 in 4.0 mi ENE 17.3 mph 20.7 mph N/A   Overcast
12:53 PM 57.0 °F - 55.0 °F 93% 30.08 in 3.0 mi ENE 15.0 mph - N/A   Overcast
1:31 PM 57.0 °F - 55.9 °F 96% 30.05 in 2.0 mi ENE 15.0 mph - 0.00 in Rain Light Rain
1:48 PM 57.2 °F - 55.4 °F 94% 30.05 in 4.0 mi East 13.8 mph - 0.00 in Rain Light Rain
1:53 PM 57.0 °F - 55.9 °F 96% 30.05 in 5.0 mi East 12.7 mph - 0.00 in   Overcast
2:42 PM 57.9 °F - 57.0 °F 97% 30.03 in 2.5 mi ENE 11.5 mph - 0.00 in Rain Light Rain
2:53 PM 57.9 °F - 57.0 °F 97% 30.02 in 2.5 mi ENE 11.5 mph - 0.00 in Rain Light Rain
3:23 PM 57.9 °F - 57.0 °F 97% 30.02 in 3.0 mi ENE 13.8 mph - 0.01 in Rain Light Rain
3:31 PM 57.9 °F - 57.0 °F 97% 30.01 in 1.8 mi East 12.7 mph - 0.02 in Rain Light Rain
3:42 PM 57.9 °F - 57.0 °F 97% 30.01 in 3.0 mi ENE 13.8 mph - 0.02 in Rain Light Rain
3:48 PM 57.2 °F - 57.2 °F 100% 30.01 in 2.5 mi ENE 11.5 mph - 0.02 in Rain Light Rain
3:53 PM 57.9 °F - 57.0 °F 97% 30.01 in 2.5 mi East 13.8 mph - 0.02 in Rain Light Rain
4:01 PM 57.9 °F - 57.0 °F 97% 30.02 in 4.0 mi ENE 13.8 mph - 0.00 in Rain Light Rain
4:11 PM 57.9 °F - 57.0 °F 97% 30.01 in 2.5 mi ENE 12.7 mph - 0.00 in Rain Light Rain
4:20 PM 57.9 °F - 57.0 °F 97% 30.01 in 4.0 mi ENE 13.8 mph - 0.00 in Rain Light Rain
4:48 PM 57.2 °F - 57.2 °F 100% 30.01 in 2.5 mi ENE 12.7 mph - 0.01 in Rain Light Rain
4:49 PM 57.9 °F - 57.0 °F 97% 30.01 in 2.5 mi ENE 11.5 mph - 0.01 in Rain Light Rain
4:58 PM 57.9 °F - 57.0 °F 97% 30.01 in 5.0 mi ENE 12.7 mph - 0.00 in Rain Light Rain
5:18 PM 57.9 °F - 57.9 °F 100% 30.01 in 1.2 mi East 10.4 mph - 0.05 in Rain Heavy Rain
5:27 PM 59.0 °F - 57.9 °F 96% 30.02 in 2.0 mi Calm Calm - 0.06 in Rain Light Rain
5:34 PM 59.0 °F - 59.0 °F 100% 30.02 in 6.0 mi NE 3.5 mph - 0.06 in Rain Light Rain
5:53 PM 59.0 °F - 57.0 °F 93% 30.02 in 4.0 mi NE 6.9 mph - 0.06 in Rain Light Rain
6:05 PM 59.0 °F - 57.9 °F 96% 30.02 in 8.0 mi NNW 6.9 mph - 0.00 in   Overcast
6:53 PM 57.9 °F - 57.0 °F 97% 30.03 in 7.0 mi North 8.1 mph - 0.03 in   Overcast
7:09 PM 57.9 °F - 57.0 °F 97% 30.03 in 8.0 mi North 6.9 mph - N/A   Overcast
7:30 PM 57.0 °F - 57.0 °F 100% 30.03 in 9.0 mi North 6.9 mph - N/A   Overcast
7:53 PM 57.0 °F - 55.9 °F 96% 30.02 in 8.0 mi North 5.8 mph - N/A   Overcast
8:20 PM 57.0 °F - 55.9 °F 96% 30.03 in 6.0 mi North 6.9 mph - N/A   Overcast
8:53 PM 57.0 °F - 55.9 °F 96% 30.02 in 5.0 mi North 5.8 mph - N/A   Overcast
9:08 PM 57.0 °F - 55.9 °F 96% 30.02 in 5.0 mi North 5.8 mph - N/A   Overcast
9:53 PM 57.0 °F - 55.9 °F 96% 30.02 in 5.0 mi North 5.8 mph - N/A   Overcast
10:53 PM 57.0 °F - 55.9 °F 96% 30.01 in 6.0 mi North 5.8 mph - N/A   Overcast
11:50 PM 57.2 °F - 55.4 °F 94% 30.00 in 4.0 mi Calm Calm - 0.00 in Rain Light Rain
11:53 PM 57.0 °F - 55.9 °F 96% 30.00 in 4.0 mi Calm Calm - 0.00 in Rain Light Rain